GSAT0212 (GALILEO 16)

Last updated on Tue Oct 28 2025 00:02:34 GMT+0000 (Coordinated Universal Time)

1 41860U 16069B 25299.72562095 .00000057 00000+0 00000+0 0 9994 2 41860 55.3509 107.5474 0002845 42.3741 317.6624 1.70474439 55677
UTC large
Height (km)
Speed (km/s)
/
Latitude / Longitude
Inclination (degrees)
Orbital Period (minutes)
Azimuth
Elevation
Range (km)
Doppler Factor

Next 0 passes for location: London (51.5072 / 0.1276)

Sorry there are no passes over London.